User: anonymous   Login
Location: Fairmont
(43.6520°N, 94.4610°W)
Time: 01:11:22
(UTC-05:00)
Language:

Cosmos-2242 - Orbit

View from above orbital plane
View from above orbital plane
View from above satellite
View from above satellite

Ground track
Ground track

The orbit data is extracted from the following two-line orbital elements,

1 22626U 93024A   17081.70326859 +.00000256 +00000-0 +25360-4 0  9996
2 22626 082.5205 123.3581 0020316 051.3094 308.9936 14.87624458292997
Epoch (UTC): 22 March 2017 16:52:42
Eccentricity: 0.0020316
inclination: 82.5205°
perigee height: 591 km
apogee height: 619 km
right ascension of ascending node: 123.3581°
argument of perigee: 51.3094°
revolutions per day: 14.87624458
mean anomaly at epoch: 308.9936°
orbit number at epoch: 29299

The dashed part of the orbit path shows where the satellite is in the earth's shadow,  

DLR